Haugen, Minnesota
Current Conditions -  °F | °C
As of 7:05 PM on Friday 24 Oct 2014 (Local Time) from KHZX Reporting Station
Clear Clear  
Wind Chill: 59°   Ceiling: Unl
Heat Index: 59°   Visibility: 10mi
Dew Point: 46°   Wind: 5mph
Humidity: 63%   Direction: 220°SW
Pressure: 29.79"   Gusts: NA
Location:  46.6404°N, 93.1222°W
Report Text: KHZX 250005Z AUTO 22004KT 10SM CLR 15/08 A2979 RMK AO2
Loading
Personal Weather Stations






























Interactive Weather Map
Tropical Storm Tracking
New forecast layout! Learn more

10-Day Weather Forecast

Advertisements
Track Severe Weather on mobile